• In Romania
  • List of Countries
  • For 7 days
  • Water Temperature
  • Satellite Maps
  • Weather Map
  • Weather Widgets
  • user-avatar
    Login

    Hourly Weather Kuvyka

    Today, 19 October, Friday

    Time Temperature Precipitation Wind Pressure Humidity
    00:00 +9°C° 0 mm 3 mps 752 mmHg 70%
    01:00 +9°C° 0 mm 3 mps 752 mmHg 72%
    02:00 +9°C° 0 mm 3 mps 752 mmHg 74%
    03:00 +9°C° 0 mm 3 mps 752 mmHg 76%
    04:00 +8°C° 0 mm 3 mps 752 mmHg 77%
    05:00 +8°C° 0 mm 3 mps 751 mmHg 78%
    06:00 +8°C° 0 mm 3 mps 751 mmHg 79%
    07:00 +9°C° 0 mm 3 mps 751 mmHg 74%
    08:00 +10°C° 0 mm 3 mps 751 mmHg 69%
    09:00 +12°C° 0 mm 4 mps 751 mmHg 64%
    10:00 +13°C° 0 mm 4 mps 751 mmHg 59%
    11:00 +15°C° 0 mm 4 mps 751 mmHg 54%
    12:00 +17°C° 0 mm 4 mps 751 mmHg 49%
    13:00 +17°C° 0 mm 4 mps 751 mmHg 48%
    14:00 +18°C° 0 mm 4 mps 750 mmHg 46%
    15:00 +18°C° 0 mm 4 mps 750 mmHg 45%
    16:00 +17°C° 0 mm 4 mps 750 mmHg 49%
    17:00 +14°C° 0 mm 3 mps 750 mmHg 53%
    18:00 +13°C° 0 mm 3 mps 749 mmHg 57%
    19:00 +12°C° 0 mm 3 mps 749 mmHg 58%
    20:00 +12°C° 0 mm 3 mps 749 mmHg 58%
    21:00 +11°C° 0 mm 3 mps 749 mmHg 59%
    22:00 +11°C° 0 mm 3 mps 749 mmHg 59%
    23:00 +10°C° 0 mm 3 mps 749 mmHg 59%

    Tomorrow, 20 October, Saturday

    Time Temperature Precipitation Wind Pressure Humidity
    00:00 +10°C° 0 mm 3 mps 748 mmHg 59%
    01:00 +10°C° 0 mm 3 mps 748 mmHg 59%
    02:00 +9°C° 0 mm 3 mps 748 mmHg 59%
    03:00 +9°C° 0 mm 3 mps 748 mmHg 59%
    04:00 +9°C° 0 mm 3 mps 748 mmHg 61%
    05:00 +9°C° 0 mm 3 mps 747 mmHg 63%
    06:00 +9°C° 0 mm 3 mps 747 mmHg 64%
    07:00 +10°C° 0 mm 3 mps 747 mmHg 62%
    08:00 +11°C° 0 mm 3 mps 747 mmHg 60%
    09:00 +12°C° 0 mm 3 mps 747 mmHg 58%
    10:00 +13°C° 0 mm 3 mps 747 mmHg 55%
    11:00 +14°C° 0 mm 3 mps 747 mmHg 52%
    12:00 +17°C° 0 mm 3 mps 747 mmHg 49%
    13:00 +17°C° 0 mm 3 mps 747 mmHg 49%
    14:00 +17°C° 0 mm 3 mps 747 mmHg 49%
    15:00 +18°C° 0 mm 3 mps 747 mmHg 49%
    16:00 +16°C° 0 mm 2 mps 747 mmHg 56%
    17:00 +15°C° 0 mm 2 mps 747 mmHg 62%
    18:00 +14°C° 0 mm 2 mps 747 mmHg 69%
    19:00 +13°C° 0 mm 2 mps 747 mmHg 74%
    20:00 +12°C° 0 mm 2 mps 748 mmHg 79%
    21:00 +12°C° 0 mm 2 mps 748 mmHg 84%
    22:00 +10°C° 0 mm 2 mps 748 mmHg 84%
    23:00 +9°C° 0 mm 3 mps 748 mmHg 84%

    Day after tomorrow, 21 October, Sunday

    Time Temperature Precipitation Wind Pressure Humidity
    00:00 +9°C° 0 mm 3 mps 748 mmHg 84%
    01:00 +8°C° 0 mm 3 mps 748 mmHg 82%
    02:00 +8°C° 0 mm 3 mps 749 mmHg 80%
    03:00 +7°C° 0 mm 3 mps 749 mmHg 79%
    04:00 +7°C° 0 mm 3 mps 749 mmHg 79%
    05:00 +7°C° 0 mm 3 mps 749 mmHg 79%
    06:00 +5°C° 0 mm 3 mps 749 mmHg 80%
    07:00 +7°C° 0 mm 3 mps 749 mmHg 76%
    08:00 +8°C° 0 mm 3 mps 750 mmHg 72%
    09:00 +8°C° 0 mm 4 mps 750 mmHg 69%
    10:00 +10°C° 0 mm 4 mps 750 mmHg 63%
    11:00 +11°C° 0 mm 4 mps 750 mmHg 58%
    12:00 +12°C° 0 mm 4 mps 751 mmHg 53%
    13:00 +12°C° 0 mm 4 mps 751 mmHg 51%
    14:00 +13°C° 0 mm 4 mps 751 mmHg 50%
    15:00 +13°C° 0 mm 4 mps 751 mmHg 49%
    16:00 +12°C° 0 mm 4 mps 751 mmHg 52%
    17:00 +11°C° 0 mm 3 mps 751 mmHg 55%
    18:00 +10°C° 0 mm 3 mps 751 mmHg 58%
    19:00 +9°C° 0 mm 3 mps 751 mmHg 60%
    20:00 +8°C° 0 mm 4 mps 751 mmHg 62%
    21:00 +8°C° 0 mm 4 mps 752 mmHg 63%
    22:00 +7°C° 0 mm 4 mps 752 mmHg 65%
    23:00 +7°C° 0 mm 4 mps 752 mmHg 67%

    22 October, Monday

    Time Temperature Precipitation Wind Pressure Humidity
    00:00 +6°C° 0 mm 4 mps 752 mmHg 68%
    01:00 +6°C° 0 mm 4 mps 752 mmHg 69%
    02:00 +6°C° 0 mm 4 mps 752 mmHg 70%
    03:00 +6°C° 0 mm 4 mps 752 mmHg 70%
    04:00 +6°C° 0 mm 4 mps 752 mmHg 71%
    05:00 +6°C° 0 mm 4 mps 752 mmHg 72%
    06:00 +5°C° 0 mm 4 mps 752 mmHg 73%
    07:00 +6°C° 0 mm 4 mps 753 mmHg 71%
    08:00 +6°C° 0 mm 4 mps 753 mmHg 70%
    09:00 +7°C° 0 mm 4 mps 753 mmHg 68%
    10:00 +8°C° 0 mm 4 mps 753 mmHg 64%
    11:00 +10°C° 0 mm 4 mps 753 mmHg 59%
    12:00 +11°C° 0 mm 4 mps 753 mmHg 55%
    13:00 +11°C° 0 mm 4 mps 753 mmHg 53%
    14:00 +11°C° 0 mm 4 mps 752 mmHg 52%
    15:00 +12°C° 0 mm 4 mps 752 mmHg 51%
    16:00 +11°C° 0 mm 4 mps 752 mmHg 54%
    17:00 +10°C° 0 mm 3 mps 752 mmHg 58%
    18:00 +9°C° 0 mm 3 mps 752 mmHg 62%
    19:00 +8°C° 0 mm 3 mps 752 mmHg 63%
    20:00 +8°C° 0 mm 3 mps 752 mmHg 64%
    21:00 +7°C° 0 mm 4 mps 752 mmHg 65%
    22:00 +6°C° 0 mm 4 mps 751 mmHg 65%
    23:00 +6°C° 0 mm 4 mps 751 mmHg 66%

    23 October, Tuesday

    Time Temperature Precipitation Wind Pressure Humidity
    00:00 +7°C° 0 mm 3 mps 751 mmHg 66%
    01:00 +7°C° 0 mm 3 mps 751 mmHg 67%
    02:00 +5°C° 0 mm 3 mps 750 mmHg 67%
    03:00 +5°C° 0 mm 3 mps 750 mmHg 68%
    04:00 +5°C° 0 mm 3 mps 750 mmHg 68%
    05:00 +5°C° 0 mm 4 mps 750 mmHg 68%
    06:00 +5°C° 0 mm 4 mps 749 mmHg 68%
    07:00 +6°C° 0 mm 4 mps 749 mmHg 65%
    08:00 +6°C° 0 mm 4 mps 749 mmHg 62%
    09:00 +7°C° 0 mm 5 mps 749 mmHg 60%
    10:00 +8°C° 0 mm 5 mps 748 mmHg 56%
    11:00 +10°C° 0 mm 5 mps 748 mmHg 52%
    12:00 +11°C° 0 mm 6 mps 748 mmHg 48%
    13:00 +11°C° 0 mm 6 mps 747 mmHg 47%
    14:00 +13°C° 0 mm 6 mps 747 mmHg 47%
    15:00 +13°C° 0 mm 6 mps 746 mmHg 46%
    16:00 +12°C° 0 mm 5 mps 746 mmHg 48%
    17:00 +12°C° 0 mm 5 mps 746 mmHg 49%
    18:00 +10°C° 0 mm 5 mps 745 mmHg 51%
    19:00 +10°C° 0 mm 5 mps 745 mmHg 52%
    20:00 +11°C° 0 mm 4 mps 745 mmHg 53%
    21:00 +11°C° 0 mm 4 mps 745 mmHg 54%
    22:00 +10°C° 0 mm 4 mps 744 mmHg 55%
    23:00 +10°C° 0 mm 4 mps 744 mmHg 56%

    24 October, Wednesday

    Time Temperature Precipitation Wind Pressure Humidity
    00:00 +10°C° 0 mm 3 mps 744 mmHg 58%
    01:00 +10°C° 0.1 mm 3 mps 743 mmHg 60%
    02:00 +10°C° 0.1 mm 3 mps 743 mmHg 61%
    03:00 +10°C° 0.1 mm 2 mps 743 mmHg 63%
    04:00 +10°C° 1 mm 2 mps 742 mmHg 70%
    05:00 +10°C° 1 mm 2 mps 742 mmHg 78%
    06:00 +9°C° 1 mm 2 mps 741 mmHg 85%
    07:00 +9°C° 2.1 mm 2 mps 741 mmHg 88%
    08:00 +9°C° 2.1 mm 2 mps 741 mmHg 91%
    09:00 +9°C° 2.1 mm 2 mps 741 mmHg 94%
    10:00 +10°C° 0.2 mm 2 mps 740 mmHg 91%
    11:00 +11°C° 0.2 mm 3 mps 740 mmHg 87%
    12:00 +12°C° 0.2 mm 3 mps 740 mmHg 84%
    13:00 +12°C° 0.1 mm 3 mps 739 mmHg 82%
    14:00 +12°C° 0.1 mm 3 mps 739 mmHg 79%
    15:00 +12°C° 0.1 mm 3 mps 738 mmHg 76%
    16:00 +12°C° 0 mm 3 mps 738 mmHg 77%
    17:00 +11°C° 0 mm 3 mps 738 mmHg 79%
    18:00 +10°C° 0 mm 3 mps 737 mmHg 80%
    19:00 +10°C° 0 mm 3 mps 737 mmHg 79%
    20:00 +10°C° 0 mm 3 mps 737 mmHg 78%
    21:00 +10°C° 0 mm 4 mps 736 mmHg 77%
    22:00 +10°C° 0 mm 3 mps 736 mmHg 77%
    23:00 +10°C° 0 mm 3 mps 735 mmHg 78%
    Show more